Torna al catalogo

BREEZE-KM DEB

AttivoPO
NORAD 41722·DEBRIS·🇷🇺 Russia

Lanciato Mar 31, 2015 da Plesetsk Cosmodrome

Loading…

Prossimi Passaggi (prossime 24 ore)

TLE

AggiornatoSource: Space-Track

Epoca: Sep 13, 2026, 02:21 UTC

1 41722U 15020K   26256.09846466  .00000035  00000-0  11326-3 0  9992
2 41722  82.4923 199.1663 0180063   9.9403 350.5177 12.70541266502968

Traccia BREEZE-KM DEB in tempo reale con AllMySat

Download on the App Store